Flag for U.S.A. Weather past 2 weeks in Lincoln, Nebraska, U.S.A.

Now
33 °F

Light snow. Fog.


Feels Like: 29 °F
Forecast: 7 / 33 °F
Wind: 5 mph from Northeast

Location: Lincoln Municipal Airport

Current Time: Feb 1, 2015 at 12:06:32 AM

Latest Report: Jan 31, 2015 at 10:54 PM


Visibility: 1 mi

Pressure: 29.89 "Hg

Humidity: 92%

Dew point: 31 °F

Location of LincolnLocation

Historic Weather in Lincoln — Graph

°F

Lincoln temperature yesterday

Maximum temperature yesterday: 39 °F (at 1:54 AM)
Minimum temperature yesterday: 33 °F (at 8:54 AM)
Average temperature yesterday: 34 °F

Past Weeks' High & Low Weather Summary

 TemperatureHumidityPressure
High62 °F (Jan 26, 2:54 PM)96% (Jan 31, 8:54 AM)30.61 "Hg (Jan 31, 8:54 AM)
Low13 °F (Jan 30, 4:54 AM)27% (Jan 18, 3:54 PM)29.67 "Hg (Jan 24, 9:54 PM)
Average38 °F68%30.09 "Hg
* Reported Jan 16 10:54 PM — Jan 31 10:54 PM, Lincoln, Weather by CustomWeather, © 2014

Note: Actual official high and low records may vary slightly from our data, if they occured in-between our weather recording intervals... More about our weather records

Advertising

Lincoln weather history for previous 24 hours

 ConditionsComfort  
Time TempWeatherWind HumidityBarometerVisibility
10:54 PM
Jan 31
33 °FLight snow. Fog.5 mph92%29.89 "Hg1 mi
10:04 PM33 °FLight snow. Fog.3 mph92%29.87 "Hg1 mi
9:54 PM33 °FLight snow. Fog.5 mph92%29.90 "Hg1 mi
8:54 PM33 °FLight snow. Fog.3 mph96%29.92 "Hg1 mi
7:54 PM33 °FLight snow. Fog.No wind96%29.94 "Hg1 mi
6:54 PM33 °FLight snow. Fog.No wind96%29.96 "Hg1 mi
5:54 PM33 °FLight snow. Fog.3 mph96%29.96 "Hg1 mi
4:54 PM33 °FLight snow. Fog.6 mph96%29.97 "Hg1 mi
3:54 PM33 °FLight snow. Fog.5 mph96%29.99 "Hg1 mi
2:54 PM33 °FLight snow. Fog.9 mph96%30.01 "Hg1 mi
1:54 PM33 °FLight snow. Fog.12 mph96%30.04 "Hg1 mi
1:00 PM33 °FLight snow. Fog.10 mph96%30.05 "Hg2 mi
11:54 AM33 °FLight snow. Fog.10 mph96%30.14 "Hg1 mi
11:02 AM33 °FLight snow. Fog.9 mph96%30.13 "Hg1 mi
10:54 AM33 °FLight snow. Fog.10 mph96%30.16 "Hg1 mi
9:54 AM34 °FLight snow. Fog.10 mph92%30.17 "Hg2 mi
8:54 AM33 °FLight rain. Fog.8 mph96%30.17 "Hg4 mi
7:54 AM34 °FLight rain. Fog.9 mph92%30.18 "Hg6 mi
6:54 AM35 °FLight rain. Fog.12 mph92%30.19 "Hg6 mi
5:54 AM37 °FLight rain. Mostly cloudy.12 mph89%30.20 "Hg9 mi
4:54 AM37 °FMostly cloudy.14 mph86%30.20 "Hg10 mi
3:54 AM37 °FOvercast.10 mph86%30.21 "Hg10 mi
2:54 AM38 °FOvercast.10 mph83%30.23 "Hg10 mi
1:54 AM39 °FMostly cloudy.15 mph79%30.25 "Hg10 mi
12:54 AM37 °FPassing clouds.9 mph73%30.27 "Hg10 mi
Weather by CustomWeather, © 2014

See weather overviewHow to use our weather pages